Saint Cloud, MN

3:51 PM CST on February 25, 2017 (GMT -0600)
Saint Cloud Regional

Weather History for KSTC - August, 2013

Change the Weather History Date:

Sunday, August 11, 2013

  Actual Average Record
Temperature  
Mean Temperature 68 °F 69 °F  
Max Temperature 81 °F 81 °F 98 °F (1947)
Min Temperature 55 °F 57 °F 38 °F (1982)
Degree Days  
Heating Degree Days 0 1  
Month to date heating degree days 12 11  
Since 1 June heating degree days 125 106  
Since 1 July heating degree days 38 28  
Cooling Degree Days 3 5  
Month to date cooling degree days 10 55  
Year to date cooling degree days 337 357  
Since 1 June cooling degree days 326 332  
Growing Degree Days 17 (Base 50)    
Moisture  
Dew Point 56 °F    
Average Humidity 68    
Maximum Humidity 93    
Minimum Humidity 42    
Precipitation  
Precipitation 0.00 in 0.12 in 1.60 in (1963)
Month to date precipitation 0.58 1.24  
Year to date precipitation 20.06 17.03  
Snow  
Snow 0.00 in 0.00 in 0.00 in ()
Month to date snowfall 0.0 0.0  
Since 1 June snowfall 0.0 0.0  
Since 1 July snowfall 0.0 0.0  
Snow Depth 0.00 in    
Sea Level Pressure  
Sea Level Pressure 30.07 in    
Wind  
Wind Speed 2 mph (NW)    
Max Wind Speed 12 mph    
Max Gust Speed 15 mph    
Visibility 10 miles    
Events      
T = Trace of Precipitation, MM = Missing Value Source: NWS Daily Summary

Daily Weather History Graph

Daily Weather History Graph

Search for Another Location

Airport or City:

Trip Planner

Search our weather history database for the weather conditions in past years. The results will help you decide how hot, cold, wet, or windy it might be!

Date:

Astronomy

Aug. 11, 2013 Rise Set
Actual Time 6:12 AM CDT 8:29 PM CDT
Civil Twilight 5:39 AM CDT 9:02 PM CDT
Nautical Twilight 4:58 AM CDT 9:42 PM CDT
Astronomical Twilight 4:12 AM CDT 10:28 PM CDT
Moon 11:19 AM CDT (8/11) 10:26 PM CDT (8/11)
Length of Visible Light 15h 22m
Length of Day
14h 17m
Waxing Crescent, 22% of the Moon is Illuminated
Aug 11
Waxing Crescent
Aug 14
First Quarter
Aug 20
Full
Aug 28
Last Quarter
Sep 5
New

Hourly Weather History & Observations

Time (CDT) Temp. Dew Point Humidity Pressure Visibility Wind Dir Wind Speed Gust Speed Precip Events Conditions
12:53 AM 55.9 °F 53.1 °F 90% 30.12 in 10.0 mi Calm Calm - N/A   Mostly Cloudy
1:53 AM 57.9 °F 55.0 °F 90% 30.12 in 10.0 mi Calm Calm - N/A   Overcast
2:53 AM 57.9 °F 55.0 °F 90% 30.11 in 10.0 mi Calm Calm - N/A   Overcast
3:53 AM 57.9 °F 55.0 °F 90% 30.10 in 10.0 mi Calm Calm - N/A   Overcast
4:53 AM 59.0 °F 55.0 °F 87% 30.11 in 10.0 mi Calm Calm - N/A   Overcast
5:53 AM 60.1 °F 54.0 °F 80% 30.09 in 10.0 mi Calm Calm - N/A   Overcast
6:53 AM 59.0 °F 55.0 °F 87% 30.09 in 10.0 mi Calm Calm - N/A   Scattered Clouds
7:53 AM 60.1 °F 55.0 °F 83% 30.09 in 10.0 mi Calm Calm - N/A   Overcast
8:53 AM 64.9 °F 55.9 °F 73% 30.10 in 10.0 mi East 4.6 mph - N/A   Scattered Clouds
9:53 AM 66.9 °F 57.9 °F 73% 30.09 in 10.0 mi Calm Calm - N/A   Mostly Cloudy
10:53 AM 71.1 °F 57.9 °F 63% 30.10 in 10.0 mi SE 4.6 mph - N/A   Mostly Cloudy
11:53 AM 73.9 °F 55.0 °F 52% 30.09 in 10.0 mi Variable 3.5 mph - N/A   Scattered Clouds
12:53 PM 75.9 °F 55.0 °F 48% 30.08 in 10.0 mi WNW 5.8 mph - N/A   Partly Cloudy
1:53 PM 78.1 °F 55.9 °F 46% 30.07 in 10.0 mi Variable 6.9 mph - N/A   Scattered Clouds
2:53 PM 79.0 °F 55.9 °F 45% 30.06 in 10.0 mi West 5.8 mph - N/A   Scattered Clouds
3:53 PM 79.0 °F 54.0 °F 42% 30.06 in 10.0 mi WSW 4.6 mph - N/A   Scattered Clouds
4:53 PM 78.1 °F 54.0 °F 43% 30.05 in 10.0 mi Calm Calm - N/A   Partly Cloudy
5:53 PM 78.1 °F 55.0 °F 45% 30.04 in 10.0 mi Calm Calm - N/A   Mostly Cloudy
6:53 PM 77.0 °F 55.0 °F 47% 30.02 in 10.0 mi NNE 3.5 mph - N/A   Scattered Clouds
7:53 PM 75.9 °F 57.9 °F 54% 30.02 in 10.0 mi Calm Calm - N/A   Partly Cloudy
8:53 PM 69.1 °F 59.0 °F 70% 30.03 in 10.0 mi Calm Calm - N/A   Partly Cloudy
9:53 PM 63.0 °F 57.9 °F 84% 30.05 in 10.0 mi Calm Calm - N/A   Clear
10:53 PM 63.0 °F 57.0 °F 81% 30.04 in 10.0 mi NW 3.5 mph - N/A   Scattered Clouds
11:53 PM 62.1 °F 55.9 °F 80% 30.05 in 10.0 mi NW 3.5 mph - N/A   Clear